LiveATC.Net - Listen to live air traffic control over the Internet!
Airport/ARTCC Code
Frequency Search
(e.g., 124.400, 128.75)
Site-wide search
 


Browse Feeds
Top 50 Feeds
Coverage Map
Bad Weather Areas

LiveATC FAQ
Offer LiveATC feed
Contact LiveATC.net
Press Inquiries

LiveATC on iPhone
LiveATC on Android

Windows Phone
Windows 8/10

LiveATC Mobile
(Mobile browser)

ATC Audio Archives
Interesting Recordings

LiveATC Forums

Home Page
About LiveATC.net
Make a Donation
Terms of Use
Privacy Policy

Canadian Air Freqs

AIRMETs/SIGMETs

FAA Airport Status
Nat'l Airspace Status
Arrival Demand Charts


Server Software By:
Icecast.org
Liquidsoap

Select an area of interest:
U.S. Feeds: Class B Airports | Class C Airports | Class D/Other Airports | ARTCC (Centers)
International Feeds: Canada | Europe | Oceania | Asia | South America | North/Central America | Africa
Misc Feeds: HF Feeds
Search by ICAO/IATA airport code:   (e.g., kbos, kjfk, lax, eham, etc.)


Currently Available Live Feeds: 2589
Status Updated: Wed Jan 22 2020 09:47:04 UTC


NOTICE

Unauthorized use prohibited. See LiveATC.net Terms of Service

Oceania/Pacific Airport Feeds

 

YADG CTAF (Archives)
Sellicks Hill, South Australia, Australia

Feed Status: UP
Listen in your browser - HTML5 player(in browser, HTML5)
Click here to listen with your own player(launches your MP3 player)

YADG Flight Activity (Flightaware)

Listeners: 0 out of 900 total

Aldinga CTAF: 127.150

YBAF Gnd/Twr #2 (Archives)
Brisbane, Queensland, Australia

Feed Status: UP
Listen in your browser - HTML5 player(in browser, HTML5)
Click here to listen with your own player(launches your MP3 player)

YBAF Flight Activity (Flightaware)

Listeners: 2 out of 900 total

Brisbane Ground: 119.900
Brisbane Tower (North): 123.600
Brisbane Tower/CTAF (South): 118.100

YBAS Tower/Center (Archives)
Alice Springs, Northern Territory, Australia

Feed Status: UP
Listen in your browser - HTML5 player(in browser, HTML5)
Click here to listen with your own player(launches your MP3 player)

YBAS 220900Z AUTO 25009KT 9999 // SCT097 OVC120 36/14 Q1004

YBAS Flight Activity (Flightaware)

Listeners: 0 out of 900 total

Alice Tower/CTAF: 118.300
Melbourne Center (above FL280): 128.850
Melbourne Center (below FL280): 119.800

YBBN Gnd/Twr/App/Dep
Brisbane, Queensland, Australia

Feed Status: DOWN
Offline since: 2020-01-22 05:07:23 UTC

YBBN 220900Z 02017KT 9999 BKN010 27/25 Q1010

Approach: 123.500
Brisbane Approach: 124.700
Brisbane Approach/Departure: 125.600
Brisbane Departure: 128.300
Brisbane Ground: 121.700
Brisbane Tower: 120.500

YBCG Approach (Archives)
Gold Coast City, Queensland, Australia

Feed Status: UP
Listen in your browser - HTML5 player(in browser, HTML5)
Click here to listen with your own player(launches your MP3 player)

YBCG 220900Z AUTO 36011KT 9999 // OVC011 26/24 Q1011

YBCG Flight Activity (Flightaware)

Listeners: 0 out of 900 total

Brisbane Approach: 123.500

YBCG Area CTAF (Archives)
Gold Coast City, Queensland, Australia

Feed Status: UP
Listen in your browser - HTML5 player(in browser, HTML5)
Click here to listen with your own player(launches your MP3 player)

YBCG 220900Z AUTO 36011KT 9999 // OVC011 26/24 Q1011

YBCG Flight Activity (Flightaware)

Listeners: 0 out of 900 total

Gold Coast Area CTAF: 126.700

YBCG Brisbane Centre (Archives)
Gold Coast City, Queensland, Australia

Feed Status: UP
Listen in your browser - HTML5 player(in browser, HTML5)
Click here to listen with your own player(launches your MP3 player)

YBCG 220900Z AUTO 36011KT 9999 // OVC011 26/24 Q1011

YBCG Flight Activity (Flightaware)

Listeners: 0 out of 900 total

Brisbane Centre/Radar: 119.500

YBCG Ground (Archives)
Gold Coast City, Queensland, Australia

Feed Status: UP
Listen in your browser - HTML5 player(in browser, HTML5)
Click here to listen with your own player(launches your MP3 player)

YBCG 220900Z AUTO 36011KT 9999 // OVC011 26/24 Q1011

YBCG Flight Activity (Flightaware)

Listeners: 0 out of 900 total

Gold Coast Ground: 121.800

YBCG Ground/Tower (Archives)
Gold Coast City, Queensland, Australia

Feed Status: UP
Listen in your browser - HTML5 player(in browser, HTML5)
Click here to listen with your own player(launches your MP3 player)

YBCG 220900Z AUTO 36011KT 9999 // OVC011 26/24 Q1011

YBCG Flight Activity (Flightaware)

Listeners: 0 out of 900 total

Gold Coast Ground: 121.800
Gold Coast Tower: 118.700

YBCG Tower (Archives)
Gold Coast City, Queensland, Australia

Feed Status: UP
Listen in your browser - HTML5 player(in browser, HTML5)
Click here to listen with your own player(launches your MP3 player)

YBCG 220900Z AUTO 36011KT 9999 // OVC011 26/24 Q1011

YBCG Flight Activity (Flightaware)

Listeners: 0 out of 900 total

Gold Coast Tower: 118.700

YBCS App/Dep #1 (Archives)
Cairns, Queensland, Australia

Feed Status: UP
Listen in your browser - HTML5 player(in browser, HTML5)
Click here to listen with your own player(launches your MP3 player)

YBCS 220900Z AUTO 00000KT 9999 // NCD 28/24 Q1008 FM0900 VRB03KT 9999 FEW025 INTER 1000/1200 3000 SHRA BKN015

YBCS Flight Activity (Flightaware)

Listeners: 0 out of 900 total

Cairns Approach/Departure: 118.400

YBCS App/Dep #2 (Archives)
Cairns, Queensland, Australia

Feed Status: UP
Listen in your browser - HTML5 player(in browser, HTML5)
Click here to listen with your own player(launches your MP3 player)

YBCS 220900Z AUTO 00000KT 9999 // NCD 28/24 Q1008 FM0900 VRB03KT 9999 FEW025 INTER 1000/1200 3000 SHRA BKN015

YBCS Flight Activity (Flightaware)

Listeners: 0 out of 900 total

Cairns Approach/Departure: 126.100

YBCS App/Dep (all) (Archives)
Cairns, Queensland, Australia

Feed Status: UP
Listen in your browser - HTML5 player(in browser, HTML5)
Click here to listen with your own player(launches your MP3 player)

YBCS 220900Z AUTO 00000KT 9999 // NCD 28/24 Q1008 FM0900 VRB03KT 9999 FEW025 INTER 1000/1200 3000 SHRA BKN015

YBCS Flight Activity (Flightaware)

Listeners: 0 out of 900 total

Cairns Approach/Departure: 126.100
Cairns Approach/Departure: 118.400

YBCS Brisbane Centre (Archives)
Cairns, Queensland, Australia

Feed Status: UP
Listen in your browser - HTML5 player(in browser, HTML5)
Click here to listen with your own player(launches your MP3 player)

YBCS 220900Z AUTO 00000KT 9999 // NCD 28/24 Q1008 FM0900 VRB03KT 9999 FEW025 INTER 1000/1200 3000 SHRA BKN015

YBCS Flight Activity (Flightaware)

Listeners: 0 out of 900 total

Brisbane Centre: 121.200

YBCS Emergency/Guard (Archives)
Cairns, Queensland, Australia

Feed Status: UP
Listen in your browser - HTML5 player(in browser, HTML5)
Click here to listen with your own player(launches your MP3 player)

YBCS 220900Z AUTO 00000KT 9999 // NCD 28/24 Q1008 FM0900 VRB03KT 9999 FEW025 INTER 1000/1200 3000 SHRA BKN015

YBCS Flight Activity (Flightaware)

Listeners: 0 out of 900 total

Emergency/Guard: 121.500

YBCS Ground (Archives)
Cairns, Queensland, Australia

Feed Status: UP
Listen in your browser - HTML5 player(in browser, HTML5)
Click here to listen with your own player(launches your MP3 player)

YBCS 220900Z AUTO 00000KT 9999 // NCD 28/24 Q1008 FM0900 VRB03KT 9999 FEW025 INTER 1000/1200 3000 SHRA BKN015

YBCS Flight Activity (Flightaware)

Listeners: 0 out of 900 total

Cairns Ground: 121.700

YBCS Ground/Tower (Archives)
Cairns, Queensland, Australia

Feed Status: UP
Listen in your browser - HTML5 player(in browser, HTML5)
Click here to listen with your own player(launches your MP3 player)

YBCS 220900Z AUTO 00000KT 9999 // NCD 28/24 Q1008 FM0900 VRB03KT 9999 FEW025 INTER 1000/1200 3000 SHRA BKN015

YBCS Flight Activity (Flightaware)

Listeners: 0 out of 900 total

Cairns Ground: 121.700
Cairns Tower: 124.900

YBCS Tower (Archives)
Cairns, Queensland, Australia

Feed Status: UP
Listen in your browser - HTML5 player(in browser, HTML5)
Click here to listen with your own player(launches your MP3 player)

YBCS 220900Z AUTO 00000KT 9999 // NCD 28/24 Q1008 FM0900 VRB03KT 9999 FEW025 INTER 1000/1200 3000 SHRA BKN015

YBCS Flight Activity (Flightaware)

Listeners: 0 out of 900 total

Cairns Tower: 124.900

YBCV CTAF/Brisbane Center
Charleville, Queensland, Australia

Feed Status: DOWN
Offline since: 2020-01-16 04:54:39 UTC

YBCV 220900Z AUTO 33005KT 9999 // NCD 36/06 Q1006

Brisbane Center: 124.800
Charleville CTAF/UNICOM: 126.700

YBDG CTAF (Archives)
Bendigo, Victoria, Australia

Feed Status: UP
Listen in your browser - HTML5 player(in browser, HTML5)
Click here to listen with your own player(launches your MP3 player)

YBDG Flight Activity (Flightaware)

Listeners: 0 out of 900 total

Bendigo CTAF: 119.300

YBOK Del/Gnd/Twr/App (Archives)
Oakey, Queensland, Australia

Feed Status: UP
Listen in your browser - HTML5 player(in browser, HTML5)
Click here to listen with your own player(launches your MP3 player)

YBOK Flight Activity (Flightaware)

Listeners: 0 out of 900 total

Brisbane Center/FSS: 121.200
Oakey Approach: 125.400
Oakey Approach: 123.700
Oakey Approach (Final): 135.850
Oakey Clearance Delivery: 133.350
Oakey CTAF (+YTWB/YBWW): 127.650
Oakey Ground: 121.900
Oakey Tower: 120.100

YBTL Approach/Departure
Townsville, Queensland, Australia

Feed Status: DOWN
Offline since: 2020-01-10 12:17:39 UTC

YBTL 220900Z AUTO 07008KT 9999 // SCT023 28/25 Q1008

Townsville Approach/Departure: 126.800

YBTL ATIS
Townsville, Queensland, Australia

Feed Status: DOWN
Offline since: 2020-01-10 12:17:39 UTC

YBTL 220900Z AUTO 07008KT 9999 // SCT023 28/25 Q1008

Townsville ATIS: 133.500

YBTL Brisbane Center
Townsville, Queensland, Australia

Feed Status: DOWN
Offline since: 2020-01-10 12:17:39 UTC

YBTL 220900Z AUTO 07008KT 9999 // SCT023 28/25 Q1008

Brisbane Center: 120.550

YBTL Clearance Delivery
Townsville, Queensland, Australia

Feed Status: DOWN
Offline since: 2020-01-10 12:17:39 UTC

YBTL 220900Z AUTO 07008KT 9999 // SCT023 28/25 Q1008

Townsville Clearance Delivery: 128.100

YBTL Ground
Townsville, Queensland, Australia

Feed Status: DOWN
Offline since: 2020-01-10 12:17:39 UTC

YBTL 220900Z AUTO 07008KT 9999 // SCT023 28/25 Q1008

Townsville Ground: 119.450

YBTL Tower
Townsville, Queensland, Australia

Feed Status: DOWN
Offline since: 2020-01-10 12:17:39 UTC

YBTL 220900Z AUTO 07008KT 9999 // SCT023 28/25 Q1008

Townsville Tower: 118.300

YGAW CTAF (Archives)
Gawler, South Australia, Australia

Feed Status: UP
Listen in your browser - HTML5 player(in browser, HTML5)
Click here to listen with your own player(launches your MP3 player)

METAR NOT AVAILABLE

YGAW Flight Activity (Flightaware)

Listeners: 0 out of 900 total

Gawler CTAF: 126.550

YGLA CTAF (Archives)
Gladstone, Queensland, Australia

Feed Status: UP
Listen in your browser - HTML5 player(in browser, HTML5)
Click here to listen with your own player(launches your MP3 player)

YGLA 220900Z AUTO 03010KT 9999 // NCD 29/24 Q1010 RF00.0/000.0

YGLA Flight Activity (Flightaware)

Listeners: 0 out of 900 total

Gladstone CTF/Multicom: 118.800

YGTH AWIS (Archives)
Griffith, New South Wales, Australia

Feed Status: UP
Listen in your browser - HTML5 player(in browser, HTML5)
Click here to listen with your own player(launches your MP3 player)

YGTH 220900Z AUTO 34009KT 9999 // NCD 35/04 Q0999

YGTH Flight Activity (Flightaware)

Listeners: 0 out of 900 total

Griffith AWIS Weather: 132.950

YGTH CTAF (Archives)
Griffith, New South Wales, Australia

Feed Status: UP
Listen in your browser - HTML5 player(in browser, HTML5)
Click here to listen with your own player(launches your MP3 player)

YGTH 220900Z AUTO 34009KT 9999 // NCD 35/04 Q0999

YGTH Flight Activity (Flightaware)

Listeners: 0 out of 900 total

Griffith CTAF: 126.550

YMHB Gnd/Twr/Centre (Archives)
Cambridge, Tasmania, Australia

Feed Status: UP
Listen in your browser - HTML5 player(in browser, HTML5)
Click here to listen with your own player(launches your MP3 player)

YMHB 220900Z 36014KT CAVOK 25/09 Q0995

YMHB Flight Activity (Flightaware)

Listeners: 0 out of 900 total

Hobart Ground: 121.700
Hobart Tower: 118.100
Melbourne Centre: 125.550

YMIA CTAF/Melbourne Center (Archives)
Mildura, Victoria, Australia

Feed Status: UP
Listen in your browser - HTML5 player(in browser, HTML5)
Click here to listen with your own player(launches your MP3 player)

YMIA 220900Z AUTO 28006KT 3800 // SCT025 OVC036 29/13 Q0997

YMIA Flight Activity (Flightaware)

Listeners: 0 out of 900 total

Melbourne Center: 112.100
Melbourne Center: 132.600
Mildura CTAF: 118.800

YMML Twr/App/Center (Archives)
Melbourne, Victoria, Australia

Feed Status: UP
Listen in your browser - HTML5 player(in browser, HTML5)
Click here to listen with your own player(launches your MP3 player)

YMML 220901Z 22017G31KT 9999 VCSH FEW008 BKN070 BKN120 19/14 Q0997

YMML Flight Activity (Flightaware)

Listeners: 17 out of 900 total

Air Ambulance: 132.750
DSE & Other Company: 119.100
Essendon Tower: 125.100
Inter-Pilot: 123.450
Jetstar Company: 130.925
Melbourne ACD: 127.200
Melbourne Approach: 132.000
Melbourne Centre: 130.300
Melbourne Centre: 128.500
Melbourne Centre: 126.800
Melbourne Centre: 125.800
Melbourne Centre: 125.700
Melbourne Centre: 125.200
Melbourne Centre: 123.750
Melbourne Centre: 122.400
Melbourne Departure: 118.900
Melbourne Departure: 129.400
Melbourne Tower: 120.500
Moorabbin Tower (East): 118.100
Moorabbin Tower (West): 123.000
Police Air Wing: 131.600
Qantas Company: 130.850
Qantas Company: 129.500
Rex Company: 126.450
Royal Victorian Aero Club Company: 128.700
Royal Victorian Aero Club Company: 133.400

YPAD Del/Gnd/Twr/App (Archives)
Adelaide, South Australia, Australia

Feed Status: UP
Listen in your browser - HTML5 player(in browser, HTML5)
Click here to listen with your own player(launches your MP3 player)

YPAD 220900Z 23015KT 9999 FEW035 BKN060 BKN100 19/10 Q0999 NOSIG

YPAD Flight Activity (Flightaware)

Listeners: 3 out of 900 total

Adelaide Approach (East of Adelaide): 118.200
Adelaide Approach (East of Adelaide): 130.450
Adelaide Approach (Kangaroo Island): 123.050
Adelaide Approach (North of Adelaide): 128.600
Adelaide Approach (West of Adelaide): 124.200
Adelaide Clearance Delivery: 126.100
Adelaide Ground: 121.700
Adelaide Tower: 120.500

YPAD Gnd/Twr/App/Center (Archives)
Adelaide, South Australia, Australia

Feed Status: UP
Listen in your browser - HTML5 player(in browser, HTML5)
Click here to listen with your own player(launches your MP3 player)

YPAD 220900Z 23015KT 9999 FEW035 BKN060 BKN100 19/10 Q0999 NOSIG

YPAD Flight Activity (Flightaware)

Listeners: 0 out of 900 total

Adelaide Approach (East of Adelaide): 118.200
Adelaide Approach (East of Adelaide): 130.450
Adelaide Approach (Kangaroo Island): 123.050
Adelaide Approach (North of Adelaide): 128.600
Adelaide Approach (West of Adelaide): 124.200
Adelaide Clearance Delivery: 126.100
Adelaide Ground: 121.700
Adelaide Tower: 120.500
Flight Watch: 135.750
Melbourne Centre: 124.300
Melbourne Centre ( East of Adelaide): 125.300
Melbourne Centre ( Pt Augusta, Pt Pirie, Whyalla): 123.900
Melbourne Centre (Mildura): 122.100
Melbourne Centre (North of Adelaide): 122.400
Melbourne Centre (Pt Lincoln): 125.900
Melbourne Centre (West of Adelaide ): 127.050

YPDN Gnd/Twr/App/Dep (Archives)
Darwin, Northern Territory, Australia

Feed Status: UP
Listen in your browser - HTML5 player(in browser, HTML5)
Click here to listen with your own player(launches your MP3 player)

YPDN 220923Z 00000KT 9999 3000SW RA FEW010 SCT048 BKN120 24/24 Q1007

YPDN Flight Activity (Flightaware)

Listeners: 2 out of 900 total

Darwin Approach: 134.100
Darwin Arrival: 125.200
Darwin Departure: 119.550
Darwin Ground: 121.800
Darwin Tower: 133.100

YPJT Gnd/Twr (Archives)
Perth, Western Australia, Australia

Feed Status: UP
Listen in your browser - HTML5 player(in browser, HTML5)
Click here to listen with your own player(launches your MP3 player)

YPJT 220900Z AUTO 22019KT 9999 // SCT032 23/14 Q1015 RF00.0/000.0

YPJT Flight Activity (Flightaware)

Listeners: 1 out of 900 total

Jandakot Ground: 124.300
Jandakot Tower: 119.400
Jandakot Tower/CTAF: 118.100

YPMQ CTAF (Archives)
Port Macquarie, New South Wales, Australia

Feed Status: UP
Listen in your browser - HTML5 player(in browser, HTML5)
Click here to listen with your own player(launches your MP3 player)

YPMQ Flight Activity (Flightaware)

Listeners: 0 out of 900 total

Port Macquarie CTAF/Multicom: 118.100

YPPF Ground (Archives)
Parafield, South Australia, Australia

Feed Status: UP
Listen in your browser - HTML5 player(in browser, HTML5)
Click here to listen with your own player(launches your MP3 player)

YPPF Flight Activity (Flightaware)

Listeners: 0 out of 900 total

Parafield Ground: 119.900

YPPF Tower #1 (Archives)
Parafield, South Australia, Australia

Feed Status: UP
Listen in your browser - HTML5 player(in browser, HTML5)
Click here to listen with your own player(launches your MP3 player)

YPPF Flight Activity (Flightaware)

Listeners: 0 out of 900 total

Parafield Tower: 118.700

YPPF Tower #2 (Archives)
Parafield, South Australia, Australia

Feed Status: UP
Listen in your browser - HTML5 player(in browser, HTML5)
Click here to listen with your own player(launches your MP3 player)

YPPF Flight Activity (Flightaware)

Listeners: 0 out of 900 total

Parafield Tower: 124.600

YPPH Approach (Archives)
Perth, Western Australia, Australia

Feed Status: UP
Listen in your browser - HTML5 player(in browser, HTML5)
Click here to listen with your own player(launches your MP3 player)

YPPH 220928Z 23017G27KT 9999 BKN035 23/13 Q1015

YPPH Flight Activity (Flightaware)

Listeners: 0 out of 900 total

Perth Approach: 123.600

YPPH Departure
Perth, Western Australia, Australia

Feed Status: DOWN
Offline since: 2020-01-18 07:15:06 UTC

YPPH 220928Z 23017G27KT 9999 BKN035 23/13 Q1015

Perth Departure: 118.700

YPPH Ground
Perth, Western Australia, Australia

Feed Status: DOWN
Offline since: 2020-01-18 07:10:06 UTC

YPPH 220928Z 23017G27KT 9999 BKN035 23/13 Q1015

Perth Ground: 121.700

YPPH Tower (Archives)
Perth, Western Australia, Australia

Feed Status: UP
Listen in your browser - HTML5 player(in browser, HTML5)
Click here to listen with your own player(launches your MP3 player)

YPPH 220928Z 23017G27KT 9999 BKN035 23/13 Q1015

YPPH Flight Activity (Flightaware)

Listeners: 1 out of 900 total

Perth Tower: 127.400

YROM CTAF/Center (Archives)
Roma, Queensland, Australia

Feed Status: UP
Listen in your browser - HTML5 player(in browser, HTML5)
Click here to listen with your own player(launches your MP3 player)

METAR NOT AVAILABLE

YROM Flight Activity (Flightaware)

Listeners: 0 out of 900 total

Brisbane Center: 126.000
Roma CTAF: 126.950

YRYW 122.5 (Archives)
Raywood, Victoria, Australia

Feed Status: UP
Listen in your browser - HTML5 player(in browser, HTML5)
Click here to listen with your own player(launches your MP3 player)

METAR NOT AVAILABLE

YRYW Flight Activity (Flightaware)

Listeners: 0 out of 900 total


YRYW 122.7 (Archives)
Raywood, Victoria, Australia

Feed Status: UP
Listen in your browser - HTML5 player(in browser, HTML5)
Click here to listen with your own player(launches your MP3 player)

METAR NOT AVAILABLE

YRYW Flight Activity (Flightaware)

Listeners: 0 out of 900 total


YRYW 122.9 (Archives)
Raywood, Victoria, Australia

Feed Status: UP
Listen in your browser - HTML5 player(in browser, HTML5)
Click here to listen with your own player(launches your MP3 player)

METAR NOT AVAILABLE

YRYW Flight Activity (Flightaware)

Listeners: 0 out of 900 total


YRYW CTAF (Archives)
Raywood, Victoria, Australia

Feed Status: UP
Listen in your browser - HTML5 player(in browser, HTML5)
Click here to listen with your own player(launches your MP3 player)

METAR NOT AVAILABLE

YRYW Flight Activity (Flightaware)

Listeners: 0 out of 900 total

Raywood CTAF: 126.700

YSBK ATIS (Archives)
Bankstown, New South Wales, Australia

Feed Status: UP
Listen in your browser - HTML5 player(in browser, HTML5)
Click here to listen with your own player(launches your MP3 player)

YSBK Flight Activity (Flightaware)

Listeners: 0 out of 900 total

Bankstown ATIS: 120.900

YSBK Tower (Archives)
Bankstown, New South Wales, Australia

Feed Status: UP
Listen in your browser - HTML5 player(in browser, HTML5)
Click here to listen with your own player(launches your MP3 player)

YSBK Flight Activity (Flightaware)

Listeners: 2 out of 900 total

Bankstown Tower: 132.800

YSCB App/Dep (Archives)
Canberra, Australian Capital Territory, Australia

Feed Status: UP
Listen in your browser - HTML5 player(in browser, HTML5)
Click here to listen with your own player(launches your MP3 player)

YSCB 220900Z AUTO 31012KT 9999 // NCD 30/M03 Q1006 FM1000 MOD TURB BLW 5000FT

YSCB Flight Activity (Flightaware)

Listeners: 1 out of 900 total

Canberra Approach/Departure: 124.500

YSCB App/Dep/Center (Archives)
Canberra, Australian Capital Territory, Australia

Feed Status: UP
Listen in your browser - HTML5 player(in browser, HTML5)
Click here to listen with your own player(launches your MP3 player)

YSCB 220900Z AUTO 31012KT 9999 // NCD 30/M03 Q1006 FM1000 MOD TURB BLW 5000FT

YSCB Flight Activity (Flightaware)

Listeners: 1 out of 900 total

Melbourne Center: 125.900

YSCB ATIS (Archives)
Canberra, Australian Capital Territory, Australia

Feed Status: UP
Listen in your browser - HTML5 player(in browser, HTML5)
Click here to listen with your own player(launches your MP3 player)

YSCB 220900Z AUTO 31012KT 9999 // NCD 30/M03 Q1006 FM1000 MOD TURB BLW 5000FT

YSCB Flight Activity (Flightaware)

Listeners: 0 out of 900 total

Canberra ATIS: 127.450

YSCB Ground/Tower (Archives)
Canberra, Australian Capital Territory, Australia

Feed Status: UP
Listen in your browser - HTML5 player(in browser, HTML5)
Click here to listen with your own player(launches your MP3 player)

YSCB 220900Z AUTO 31012KT 9999 // NCD 30/M03 Q1006 FM1000 MOD TURB BLW 5000FT

YSCB Flight Activity (Flightaware)

Listeners: 0 out of 900 total

Canberra Ground: 121.700
Canberra Tower: 118.700

YSCB Melbourne Center (Archives)
Canberra, Australian Capital Territory, Australia

Feed Status: UP
Listen in your browser - HTML5 player(in browser, HTML5)
Click here to listen with your own player(launches your MP3 player)

YSCB 220900Z AUTO 31012KT 9999 // NCD 30/M03 Q1006 FM1000 MOD TURB BLW 5000FT

YSCB Flight Activity (Flightaware)

Listeners: 0 out of 900 total

Melbourne Center: 128.400

YSCN Tower/CTAF (Archives)
Camden, New South Wales, Australia

Feed Status: UP
Listen in your browser - HTML5 player(in browser, HTML5)
Click here to listen with your own player(launches your MP3 player)

YSCN Flight Activity (Flightaware)

Listeners: 0 out of 900 total

Camden Tower/CTAF: 120.100

YSNW Gnd/CTAF/App/Center (Archives)
Nowra, New South Wales, Australia

Feed Status: UP
Listen in your browser - HTML5 player(in browser, HTML5)
Click here to listen with your own player(launches your MP3 player)

YSNW 220900Z 07009KT CAVOK 26/18 Q1004 NOSIG

YSNW Flight Activity (Flightaware)

Listeners: 0 out of 900 total

Enroute: 132.300
Nowra Approach: 123.500
Nowra CTAF: 118.850
Nowra Ground: 135.850

Australia - ATC Satellite Feed (Archives)
Sydney, New South Wales, Australia

Feed Status: UP
Listen in your browser - HTML5 player(in browser, HTML5)
Click here to listen with your own player(launches your MP3 player)


Listeners: 1 out of 900 total

Brisbane Center: 123.400
Brisbane Center: 128.600
Melbourne Center: 133.500
Melbourne Center: 118.500
Sydney Departures: 118.400

YSSY Approach (North/East) (Archives)
Sydney, New South Wales, Australia

Feed Status: UP
Listen in your browser - HTML5 player(in browser, HTML5)
Click here to listen with your own player(launches your MP3 player)

YSSY 220900Z 03017KT 9999 FEW020 28/23 Q1005 NOSIG

YSSY Flight Activity (Flightaware)

Listeners: 0 out of 900 total

Sydney Approach (North/East): 124.400

YSSY Approach (South) (Archives)
Sydney, New South Wales, Australia

Feed Status: UP
Listen in your browser - HTML5 player(in browser, HTML5)
Click here to listen with your own player(launches your MP3 player)

YSSY 220900Z 03017KT 9999 FEW020 28/23 Q1005 NOSIG

YSSY Flight Activity (Flightaware)

Listeners: 0 out of 900 total

Sydney Approach (South/West): 128.300

YSSY ATIS (Archives)
Sydney, New South Wales, Australia

Feed Status: UP
Listen in your browser - HTML5 player(in browser, HTML5)
Click here to listen with your own player(launches your MP3 player)

YSSY 220900Z 03017KT 9999 FEW020 28/23 Q1005 NOSIG

YSSY Flight Activity (Flightaware)

Listeners: 0 out of 900 total

Sydney ATIS: 118.550

YSSY Center (South/West) (Archives)
Sydney, New South Wales, Australia

Feed Status: UP
Listen in your browser - HTML5 player(in browser, HTML5)
Click here to listen with your own player(launches your MP3 player)

YSSY 220900Z 03017KT 9999 FEW020 28/23 Q1005 NOSIG

YSSY Flight Activity (Flightaware)

Listeners: 0 out of 900 total

Sydney Center: 124.550

YSSY Del/Gnd (Archives)
Sydney, New South Wales, Australia

Feed Status: UP
Listen in your browser - HTML5 player(in browser, HTML5)
Click here to listen with your own player(launches your MP3 player)

YSSY 220900Z 03017KT 9999 FEW020 28/23 Q1005 NOSIG

YSSY Flight Activity (Flightaware)

Listeners: 0 out of 900 total

Sydney Clearance Delivery: 133.800
Sydney Ground (East of Rwys 16R/34L): 121.700
Sydney Ground (West of Rwys 16R/34L): 126.500

YSSY Departure (North/East) (Archives)
Sydney, New South Wales, Australia

Feed Status: UP
Listen in your browser - HTML5 player(in browser, HTML5)
Click here to listen with your own player(launches your MP3 player)

YSSY 220900Z 03017KT 9999 FEW020 28/23 Q1005 NOSIG

YSSY Flight Activity (Flightaware)

Listeners: 0 out of 900 total

Sydney Departure (North/East): 123.000

YSSY Departure (South/West) (Archives)
Sydney, New South Wales, Australia

Feed Status: UP
Listen in your browser - HTML5 player(in browser, HTML5)
Click here to listen with your own player(launches your MP3 player)

YSSY 220900Z 03017KT 9999 FEW020 28/23 Q1005 NOSIG

YSSY Flight Activity (Flightaware)

Listeners: 0 out of 900 total

Sydney Departure (Rte S, W and NW): 129.700

YSSY Director (Both) (Archives)
Sydney, New South Wales, Australia

Feed Status: UP
Listen in your browser - HTML5 player(in browser, HTML5)
Click here to listen with your own player(launches your MP3 player)

YSSY 220900Z 03017KT 9999 FEW020 28/23 Q1005 NOSIG

YSSY Flight Activity (Flightaware)

Listeners: 0 out of 900 total

Sydney Director (East): 125.300
Sydney Director (West): 126.100

YSSY Director (East) (Archives)
Sydney, New South Wales, Australia

Feed Status: UP
Listen in your browser - HTML5 player(in browser, HTML5)
Click here to listen with your own player(launches your MP3 player)

YSSY 220900Z 03017KT 9999 FEW020 28/23 Q1005 NOSIG

YSSY Flight Activity (Flightaware)

Listeners: 0 out of 900 total

Sydney Director (East): 125.300

YSSY Tower (Both) (Archives)
Sydney, New South Wales, Australia

Feed Status: UP
Listen in your browser - HTML5 player(in browser, HTML5)
Click here to listen with your own player(launches your MP3 player)

YSSY 220900Z 03017KT 9999 FEW020 28/23 Q1005 NOSIG

YSSY Flight Activity (Flightaware)

Listeners: 2 out of 900 total

Sydney Tower (Rwy 16L/34R): 124.700
Sydney Tower (Rwy 16R/34L, Rwy 07/25): 120.500

YSSY Tower (Rwy 16L/34R) (Archives)
Sydney, New South Wales, Australia

Feed Status: UP
Listen in your browser - HTML5 player(in browser, HTML5)
Click here to listen with your own player(launches your MP3 player)

YSSY 220900Z 03017KT 9999 FEW020 28/23 Q1005 NOSIG

YSSY Flight Activity (Flightaware)

Listeners: 0 out of 900 total

Sydney Tower (Rwy 16L/34R): 124.700

YSSY Tower (Rwys 16R/34L,7/25) (Archives)
Sydney, New South Wales, Australia

Feed Status: UP
Listen in your browser - HTML5 player(in browser, HTML5)
Click here to listen with your own player(launches your MP3 player)

YSSY 220900Z 03017KT 9999 FEW020 28/23 Q1005 NOSIG

YSSY Flight Activity (Flightaware)

Listeners: 1 out of 900 total

Sydney Tower (Rwy 16R/34L, Rwy 07/25): 120.500